Regional Weather Roundup
Issued by NWS

Home | Current Version | Previous Version | Text Only | Print | Product List | Glossary Off
Versions: 1 2 3 4 5 6 7 8 9 10 11 12 13 14 15 16 17 18 19 20 21 22 23 24 25 26 27 28 29 30 31 32 33 34 35 36 37 38 39 40 41 42 43 44 45 46 47 48 49 50

000
ASUS43 KLMK 300102
RWRKY
KENTUCKY REGIONAL WEATHER ROUNDUP
NATIONAL WEATHER SERVICE LOUISVILLE KY
900 PM EDT WED OCT 29 2014

NOTE "FAIR" INDICATES FEW OR NO CLOUDS BELOW 12,000 FEET
WITH NO SIGNIFICANT WEATHER AND/OR OBSTRUCTIONS TO VISIBILITY.

KYZ001>023-026-027-061>063-070>075-300200-
WESTERN AND SOUTH CENTRAL KENTUCKY

CITY           SKY/WX    TMP DP  RH WIND       PRES   REMARKS
PADUCAH        CLEAR     46  40  79 CALM      30.14R
HENDERSON      CLEAR     46  36  66 N3        30.15R
OWENSBORO      CLEAR     52  38  58 N5        30.15R
HOPKINSVILLE   CLEAR     54  35  47 NW6       30.13R
BOWLING GREEN  CLEAR     54  36  50 NW3       30.13R
GLASGOW        CLEAR     48  36  61 CALM      30.12R
$$

KYZ024-025-028>034-038-045-046-053-300200-
NORTH CENTRAL KENTUCKY

CITY           SKY/WX    TMP DP  RH WIND       PRES   REMARKS
LOUISVILLE/SDF CLEAR     52  36  54 NW9       30.13R
LOUISVILLE/LOU CLEAR     52  36  54 NW7       30.13R
FORT KNOX      CLEAR     49  36  60 NW7       30.12R
$$

KYZ035>037-039>044-047>052-055>060-089>105-300200-
NORTHEAST KENTUCKY

CITY           SKY/WX    TMP DP  RH WIND       PRES   REMARKS
LEXINGTON      CLEAR     50  35  56 NW7       30.10R
COVINGTON      CLEAR     47  34  60 N7        30.11R
FRANKFORT      CLEAR     50  35  56 NW6       30.10R
$$

KYZ054-064>069-076>088-106>120-300200-
SOUTHEAST KENTUCKY

CITY           SKY/WX    TMP DP  RH WIND       PRES   REMARKS
JACKSON        CLEAR     53  36  52 W3        30.08S
LONDON         CLEAR     50  40  68 CALM      30.09S
SOMERSET       CLEAR     46  39  76 CALM      30.11S
MIDDLESBORO    CLEAR     46  41  83 CALM      30.11S
MONTICELLO     CLEAR     43  41  93 CALM      30.12S
$$




USA.gov is the U.S. government's official web portal to all federal, state and local government web resources and services.